{"data":{"norad_id":25416,"intl_designator":"1998-046D","name":"ORBCOMM FM20","alt_names":[],"object_type":"PAYLOAD","status":"ACTIVE","operator":null,"country":"ORB","launch_date":"1998-08-02","launch_site_code":"ERAS","launch_vehicle":null,"mission":null,"orbit_class":"UNKNOWN","rcs_meters":0.679,"size_class":null,"mass_kg":null,"dimensions":null,"purposes":["comms"],"wikipedia_slug":null,"has_3d_model":false,"image_url":null,"decayed_at":null,"tle_current":{"epoch":"2026-05-25T00:25:53.831424Z","epoch_age_seconds":69664,"freshness":"FRESH","line1":"1 25416U 98046D   26145.01798416  .00000575  00000+0  23491-3 0  9997","line2":"2 25416  44.9954   1.3561 0000338 151.6266 208.4600 14.38026814453450","mean_motion":14.38026814,"eccentricity":3.38e-5,"inclination_deg":44.9954,"raan_deg":1.3561,"arg_perigee_deg":151.6266,"mean_anomaly_deg":208.46,"bstar":0.00023491,"rev_number":45345,"period_min":100.13721482665,"perigee_km":764.78387272547,"apogee_km":765.26675049774,"semimajor_km":7143.1623116116,"source":"CELESTRAK","updated_at":"2026-05-25T13:38:22.863090Z"}}}